Simultaneous Nadir Overpasses (SNOs) Predictions

Prediction of SNOs between AQUA and METOP-C Satellite Orbit:

Table of predicted SNOs for the next 14.0 days since TLE Epoch: 9/2/2023
Index Date (AQUA) Time (AQUA) Lat,Lon (AQUA) SZA (AQUA ) Date (METOP-C) Time (METOP-C) Lat,Lon (METOP-C) SZA (METOP-C ) Distance(km) Time Diff (sec)
1 09/04/2023 08:44:11 -74.73,-134.81 112.55 09/04/2023 08:43:40 -74.71,-134.84 112.56 2.56 31
2 09/04/2023 09:33:37 74.79, 32.69 67.53 09/04/2023 09:34:19 74.80, 32.72 67.54 1.20 42
3 09/07/2023 01:46:58 74.72, 149.55 68.45 09/07/2023 01:45:57 74.70, 149.55 68.43 2.67 61
4 09/07/2023 02:36:23 -74.80, -42.99 111.46 09/07/2023 02:36:36 -74.78, -42.88 111.48 3.58 13
5 09/07/2023 03:25:59 75.36, 123.14 69.15 09/07/2023 03:27:04 75.39, 126.20 69.13 86.06 65
6 09/09/2023 18:49:31 -74.17, 75.24 111.11 09/09/2023 18:48:25 -74.10, 72.42 111.13 86.27 66
7 09/09/2023 19:39:07 74.74,-118.51 69.50 09/09/2023 19:38:52 74.76,-118.52 69.52 2.03 15
8 09/09/2023 20:28:32 -74.82, 48.95 110.41 09/09/2023 20:29:32 -74.80, 48.92 110.43 1.98 60
9 09/12/2023 12:41:51 -74.75, 165.82 109.47 09/12/2023 12:41:09 -74.74, 165.85 109.48 1.37 42
10 09/12/2023 13:31:17 74.82, -26.70 70.61 09/12/2023 13:31:48 74.82, -26.62 70.61 2.48 31
11 09/15/2023 05:44:35 74.75, 90.17 71.57 09/15/2023 05:43:25 74.74, 90.27 71.56 3.21 70
12 09/15/2023 06:33:59 -74.77,-102.24 108.40 09/15/2023 06:34:05 -74.79,-102.26 108.38 2.07 6



Historial Predications of SNOs between AQUA and METOP-C
